TimeMST,TemperatureF,Dew PointF,Humidity,Sea Level PressureIn,VisibilityMPH,Wind Direction,Wind SpeedMPH,Gust SpeedMPH,PrecipitationIn,Events,Conditions,WindDirDegrees,DateUTC
1:53 AM,-0.9,-6.0,79,30.56,10.0,SSE,6.9,-,N/A,,Clear,160,2013-01-04 08:53:00
2:53 AM,-2.9,-9.0,75,30.57,10.0,SSE,6.9,-,N/A,,Clear,150,2013-01-04 09:53:00
3:53 AM,-2.9,-9.0,75,30.55,10.0,SSE,5.8,-,N/A,,Clear,160,2013-01-04 10:53:00
4:53 AM,-2.0,-7.1,79,30.57,10.0,SSE,6.9,-,N/A,,Clear,160,2013-01-04 11:53:00
6:53 AM,-2.0,-7.1,79,30.61,10.0,South,8.1,-,N/A,,Clear,170,2013-01-04 13:53:00
7:53 AM,-4.0,-8.0,83,30.66,10.0,SSE,6.9,-,N/A,,Clear,150,2013-01-04 14:53:00
8:53 AM,3.0,-4.0,73,30.63,10.0,SSE,6.9,-,N/A,,Clear,160,2013-01-04 15:53:00
9:53 AM,10.0,-0.0,64,30.61,10.0,Calm,Calm,-,N/A,,Clear,0,2013-01-04 16:53:00
10:53 AM,12.9,1.0,59,30.57,10.0,Calm,Calm,-,N/A,,Clear,0,2013-01-04 17:53:00
11:53 AM,18.0,1.0,48,30.49,10.0,Calm,Calm,-,N/A,,Clear,0,2013-01-04 18:53:00
12:53 PM,18.0,3.9,54,30.45,10.0,North,3.5,-,N/A,,Clear,10,2013-01-04 19:53:00
1:53 PM,18.0,5.0,57,30.42,10.0,NNW,3.5,-,N/A,,Clear,330,2013-01-04 20:53:00
2:53 PM,21.0,3.9,48,30.41,10.0,Calm,Calm,-,N/A,,Clear,0,2013-01-04 21:53:00
3:53 PM,19.9,3.9,50,30.41,10.0,Calm,Calm,-,N/A,,Clear,0,2013-01-04 22:53:00
4:53 PM,18.0,5.0,57,30.42,10.0,Calm,Calm,-,N/A,,Clear,0,2013-01-04 23:53:00
5:53 PM,10.0,3.9,76,30.48,10.0,Calm,Calm,-,N/A,,Clear,0,2013-01-05 00:53:00
6:53 PM,1.9,-2.9,80,30.53,7.0,SSE,3.5,-,N/A,,Clear,150,2013-01-05 01:53:00
7:53 PM,3.0,-0.0,87,30.56,8.0,SSE,6.9,-,N/A,,Clear,150,2013-01-05 02:53:00
8:53 PM,-0.9,-5.1,83,30.55,9.0,SE,8.1,-,N/A,,Clear,140,2013-01-05 03:53:00
10:53 PM,1.0,-2.9,83,30.50,8.0,SSE,5.8,-,N/A,,Clear,160,2013-01-05 05:53:00
11:53 PM,-0.9,-5.1,83,30.49,7.0,SE,6.9,-,N/A,,Clear,140,2013-01-05 06:53:00